COSMOS 2374 (GLONASS) 1 26566U 00063C 10066.39202887 -.00000027 +00000-0 +10000-3 0 06852 2 26566 064.5276 155.1171 0054223 214.9915 144.6833 02.13100192073126 COSMOS 2382 (GLONASS) 1 26987U 01053A 10064.68877668 +.00000018 +00000-0 +10000-3 0 03052 2 26987 063.4910 270.7713 0006166 175.1137 184.9214 02.13102722064276 COSMOS 2381 (GLONASS) 1 26988U 01053B 10066.91016176 +.00000034 +00000-0 +10000-3 0 03160 2 26988 063.4945 270.6954 0028906 205.9320 153.9622 02.13103880064335 COSMOS 2394 (GLONASS) 1 27617U 02060A 10066.58569891 -.00000029 +00000-0 +10000-3 0 09610 2 27617 064.7296 155.6346 0001441 134.0247 226.0222 02.13102380056063 COSMOS 2396 (GLONASS) 1 27618U 02060B 10064.59942305 -.00000005 +00000-0 +10000-3 0 09844 2 27618 064.7312 155.6761 0015963 154.0157 206.1021 02.13101369056006 COSMOS 2395 (GLONASS) 1 27619U 02060C 10067.46623864 -.00000034 +00000-0 +10000-3 0 09954 2 27619 064.7399 155.6487 0008197 317.0366 042.9018 02.13102754056068 COSMOS 2404 (GLONASS) 1 28112U 03056A 10067.56715258 +.00000034 +00000-0 +10000-3 0 07800 2 28112 063.7963 273.2779 0048727 095.5989 264.9923 02.13102031048583 COSMOS 2402 (GLONASS) 1 28113U 03056B 10066.84815453 +.00000030 +00000-0 +10000-3 0 07063 2 28113 063.8150 273.3154 0039211 094.9685 265.5142 02.13104510048578 COSMOS 2403 (GLONASS) 1 28114U 03056C 10066.49453521 +.00000027 +00000-0 +10000-3 0 06783 2 28114 063.8203 273.3471 0039364 077.3304 283.1330 02.13103959048562 COSMOS 2413 (GLONASS) 1 28508U 04053A 10067.73170024 +.00000036 +00000-0 +10000-3 0 04159 2 28508 063.6964 272.0714 0010518 164.1756 195.8939 02.13104010040456 COSMOS 2411 (GLONASS) 1 28509U 04053B 10067.67324689 +.00000036 +00000-0 +10000-3 0 04511 2 28509 063.6913 272.0448 0005772 132.6816 264.1013 02.13100212040451 COSMOS 2412 (GLONASS) 1 28510U 04053C 10067.67927202 +.00000036 +00000-0 +10000-3 0 04164 2 28510 063.7041 272.0991 0003201 189.7606 170.2687 02.13103351040455 COSMOS 2419 (GLONASS) 1 28915U 05050A 10066.21537870 -.00000025 00000-0 10000-3 0 1692 2 28915 064.8635 155.0959 0007755 337.4684 049.1775 02.13101997 32676 COSMOS 2418 (GLONASS) 1 28916U 05050B 10066.23789974 -.00000025 +00000-0 +10000-3 0 01509 2 28916 064.8818 155.1342 0017999 338.7333 021.2249 02.13104921032670 COSMOS 2417 (GLONASS) 1 28917U 05050C 10067.52453366 -.00000035 +00000-0 +00000-0 0 01222 2 28917 064.8662 155.0694 0015166 141.7532 218.3883 02.13103118032696 COSMOS 2425 (GLONASS) 1 29670U 06062A 10065.89149821 -.00000034 00000-0 10000-3 0 8926 2 29670 065.5375 034.0677 0024632 344.0352 142.6840 02.13103183 24869 COSMOS 2426 (GLONASS) 1 29671U 06062B 10067.81171774 -.00000032 +00000-0 +10000-3 0 09045 2 29671 065.5549 034.0368 0016708 177.0281 209.3644 02.13103573024912 COSMOS 2424 (GLONASS) 1 29672U 06062C 10067.26852568 -.00000032 +00000-0 +10000-3 0 09187 2 29672 065.5397 034.0254 0014377 177.6036 332.3361 02.13103610024894 COSMOS 2433 (GLONASS) 1 32275U 07052A 10065.53211095 -.00000017 00000-0 00000+0 0 6457 2 32275 064.8756 154.8629 0002383 262.4324 142.2733 02.13102609 18376 COSMOS 2432 (GLONASS) 1 32276U 07052B 10067.91381498 -.00000035 +00000-0 +10000-3 0 06272 2 32276 064.8888 154.8114 0014433 340.0908 046.0028 02.13102121018425 COSMOS 2431 (GLONASS) 1 32277U 07052C 10067.28393715 -.00000034 +00000-0 +00000-0 0 06330 2 32277 064.8919 154.8277 0018583 191.1672 207.1911 02.13102298018497 COSMOS 2434 (GLONASS) 1 32393U 07065A 10067.22521459 -.00000032 +00000-0 +00000-0 0 04847 2 32393 065.1592 034.4253 0001587 143.1127 016.5776 02.13103154017113 COSMOS 2435 (GLONASS) 1 32394U 07065B 10067.02024425 -.00000032 +00000-0 +00000-0 0 03846 2 32394 065.1600 034.4360 0001709 346.8833 196.1529 02.13103318017040 COSMOS 2436 (GLONASS) 1 32395U 07065C 10067.88095828 -.00000032 +00000-0 +10000-3 0 03985 2 32395 065.1727 034.4104 0019291 347.5002 046.1984 02.13103397017066 COSMOS 2442 (GLONASS) 1 33378U 08046A 10065.46238399 -.00000017 00000-0 10000-3 0 4198 2 33378 064.7897 154.4807 0027448 336.0626 059.6944 02.13102238 11233 COSMOS 2443 (GLONASS) 1 33379U 08046B 10067.65548891 -.00000035 +00000-0 +10000-3 0 04081 2 33379 064.7965 154.4435 0020927 182.9432 320.7979 02.13102422011285 COSMOS 2444 (GLONASS) 1 33380U 08046C 10066.77778787 -.00000030 +00000-0 +10000-3 0 04089 2 33380 064.8056 154.4839 0028823 329.0062 176.4961 02.13102542011250 COSMOS 2447 (GLONASS) 1 33466U 08067A 10067.11183549 +.00000030 +00000-0 +00000-0 0 03536 2 33466 064.5440 275.1524 0001685 285.8759 219.5865 02.13101735009320 COSMOS 2449 (GLONASS) 1 33467U 08067B 10067.72526681 +.00000033 +00000-0 +00000-0 0 03579 2 33467 064.5323 275.1144 0002219 316.8233 074.6752 02.13101878009362 COSMOS 2448 (GLONASS) 1 33468U 08067C 10066.18309134 +.00000023 +00000-0 +00000-0 0 03558 2 33468 064.5371 275.1691 0004257 333.9168 223.7520 02.13101582009311